Weather in Petropavlovka

Russia / Republic of Buryatia     50°36′36″N   105°19′03″E
temp.,
°C
wind,
m/s
gust,
m/s
humid.,
%
clouds,
%
prec.,
mm/h
press.,
hPa
HPBL,
m
17 january, mon
mon1723:00−27sw2299100 0.0 103811
02:00−27sw21995 0.0 103610
05:00−28sw22995 0.0 103513
08:00−27sw2198100 0.0 103513
11:00−20wsw1281100 0.0 103189
14:00−15w1171100 0.0 1026164
17:00−15ne1189100 0.0 102717
20:00−20se00975 0.0 10309
18 january, tue
tue1823:00−22ssw11985 0.0 10339
02:00−22sw119881 0.0 10359
05:00−23sw11995 0.0 103610
08:00−24ssw119997 0.0 10379
11:00−18sw1189100 0.0 103567
14:00−13ne1182100 0.0 1031172
17:00−15ne1196100 0.0 103218
20:00−17ene1198100 0.0 103316
19 january, wed
wed1923:00−15ne1189100 0.0 103264
02:00−14ne1191100 0.1 103173
05:00−18ssw1198100 0.0 10329
08:00−22sw1110085 0.0 10349
11:00−16wsw11925 0.0 103176
14:00−12nw00838 0.0 1029210
17:00−16ene119723 0.0 10309
20:00−20ssw11100100 0.0 10339
20 january, thu
thu2023:00−20sw1199100 0.0 10339
02:00−20ssw119962 0.0 103212
05:00−22sw11100100 0.0 10339
08:00−22ssw11100100 0.0 10349
11:00−17w1193100 0.0 103377
14:00−13ne118590 0.0 1030215
17:00−16ene1197100 0.0 103210
20:00−16s0098100 0.1 103411
21 january, fri
fri2123:00−15sw1197100 0.3 10349
02:00−16sw119886 0.5 103511
05:00−20sw1110076 0.1 103710
08:00−23sw2110086 0.1 103910
11:00−17wsw129660 0.0 103774
14:00−12w118654 0.0 1034206
17:00−16ene119842 0.0 10359
20:00−22ssw1110086 0.0 10389